#Datum;Uhrzeit;WR;Pac;DaySum;Status;WR;Pac;DaySum;Status;Pdc1;Udc;Temp;WR;Pac;DaySum;Status;Pdc1;Udc;Temp;WR;Pac;DaySum;Status;Pdc1;Udc;Temp;WR;Pac;DaySum;Status;Pdc1;Pdc2;Udc1;Udc2;Temp;WR;Pac;DaySum;Status;Pdc1;Pdc2;Udc1;Udc2;Temp;WR;Pac;DaySum;Status;Pdc1;Udc;Temp;WR;Pac;DaySum;Status;Pdc1;Udc;Temp;WR;Pac;DaySum;Status;Pdc1;Udc;Temp
13.01.20;23:55:00;1;2790;16108;0;2;0;3575;0;0;0;0;3;0;2213;0;0;0;0;4;0;3109;0;0;0;0;5;0;7913;0;0;0;0;0;0;6;0;5895;0;0;0;0;0;0;7;0;3840;0;0;0;0;8;0;3876;0;0;0;0;9;0;2056;0;0;0;0
13.01.20;23:50:00;1;220;15914;0;2;0;3575;0;0;0;0;3;0;2213;0;0;0;0;4;0;3109;0;0;0;0;5;0;7913;0;0;0;0;0;0;6;0;5895;0;0;0;0;0;0;7;0;3840;0;0;0;0;8;0;3876;0;0;0;0;9;0;2056;0;0;0;0
13.01.20;23:45:00;1;221;15896;0;2;0;3575;0;0;0;0;3;0;2213;0;0;0;0;4;0;3109;0;0;0;0;5;0;7913;0;0;0;0;0;0;6;0;5895;0;0;0;0;0;0;7;0;3840;0;0;0;0;8;0;3876;0;0;0;0;9;0;2056;0;0;0;0
13.01.20;23:40:00;1;218;15877;0;2;0;3575;0;0;0;0;3;0;2213;0;0;0;0;4;0;3109;0;0;0;0;5;0;7913;0;0;0;0;0;0;6;0;5895;0;0;0;0;0;0;7;0;3840;0;0;0;0;8;0;3876;0;0;0;0;9;0;2056;0;0;0;0
13.01.20;23:35:00;1;219;15859;0;2;0;3575;0;0;0;0;3;0;2213;0;0;0;0;4;0;3109;0;0;0;0;5;0;7913;0;0;0;0;0;0;6;0;5895;0;0;0;0;0;0;7;0;3840;0;0;0;0;8;0;3876;0;0;0;0;9;0;2056;0;0;0;0
13.01.20;23:30:00;1;281;15840;0;2;0;3575;0;0;0;0;3;0;2213;0;0;0;0;4;0;3109;0;0;0;0;5;0;7913;0;0;0;0;0;0;6;0;5895;0;0;0;0;0;0;7;0;3840;0;0;0;0;8;0;3876;0;0;0;0;9;0;2056;0;0;0;0
13.01.20;23:25:00;1;225;15799;0;2;0;3575;0;0;0;0;3;0;2213;0;0;0;0;4;0;3109;0;0;0;0;5;0;7913;0;0;0;0;0;0;6;0;5895;0;0;0;0;0;0;7;0;3840;0;0;0;0;8;0;3876;0;0;0;0;9;0;2056;0;0;0;0
13.01.20;23:20:00;1;274;15780;0;2;0;3575;0;0;0;0;3;0;2213;0;0;0;0;4;0;3109;0;0;0;0;5;0;7913;0;0;0;0;0;0;6;0;5895;0;0;0;0;0;0;7;0;3840;0;0;0;0;8;0;3876;0;0;0;0;9;0;2056;0;0;0;0
13.01.20;23:15:00;1;293;15757;0;2;0;3575;0;0;0;0;3;0;2213;0;0;0;0;4;0;3109;0;0;0;0;5;0;7913;0;0;0;0;0;0;6;0;5895;0;0;0;0;0;0;7;0;3840;0;0;0;0;8;0;3876;0;0;0;0;9;0;2056;0;0;0;0
13.01.20;23:10:00;1;296;15732;0;2;0;3575;0;0;0;0;3;0;2213;0;0;0;0;4;0;3109;0;0;0;0;5;0;7913;0;0;0;0;0;0;6;0;5895;0;0;0;0;0;0;7;0;3840;0;0;0;0;8;0;3876;0;0;0;0;9;0;2056;0;0;0;0
13.01.20;23:05:00;1;266;15707;0;2;0;3575;0;0;0;0;3;0;2213;0;0;0;0;4;0;3109;0;0;0;0;5;0;7913;0;0;0;0;0;0;6;0;5895;0;0;0;0;0;0;7;0;3840;0;0;0;0;8;0;3876;0;0;0;0;9;0;2056;0;0;0;0
13.01.20;23:00:00;1;253;15685;0;2;0;3575;0;0;0;0;3;0;2213;0;0;0;0;4;0;3109;0;0;0;0;5;0;7913;0;0;0;0;0;0;6;0;5895;0;0;0;0;0;0;7;0;3840;0;0;0;0;8;0;3876;0;0;0;0;9;0;2056;0;0;0;0
13.01.20;22:55:00;1;322;15664;0;2;0;3575;0;0;0;0;3;0;2213;0;0;0;0;4;0;3109;0;0;0;0;5;0;7913;2;0;0;0;0;0;6;0;5895;2;0;0;0;0;0;7;0;3840;0;0;0;0;8;0;3876;0;0;0;0;9;0;2056;0;0;0;0
13.01.20;22:50:00;1;264;15620;0;2;0;3575;0;0;0;0;3;0;2213;0;0;0;0;4;0;3109;0;0;0;0;5;0;7913;2;0;0;0;0;0;6;0;5895;2;0;0;0;0;0;7;0;3840;0;0;0;0;8;0;3876;0;0;0;0;9;0;2056;0;0;0;0
13.01.20;22:45:00;1;318;15597;0;2;0;3575;0;0;0;0;3;0;2213;0;0;0;0;4;0;3109;0;0;0;0;5;0;7913;2;0;0;0;0;0;6;0;5895;2;0;0;0;0;0;7;0;3840;0;0;0;0;8;0;3876;0;0;0;0;9;0;2056;0;0;0;0
13.01.20;22:40:00;1;321;15570;0;2;0;3575;0;0;0;0;3;0;2213;0;0;0;0;4;0;3109;0;0;0;0;5;0;7913;2;0;0;0;0;0;6;0;5895;2;0;0;0;0;0;7;0;3840;0;0;0;0;8;0;3876;0;0;0;0;9;0;2056;0;0;0;0
13.01.20;22:35:00;1;326;15543;0;2;0;3575;0;0;0;0;3;0;2213;0;0;0;0;4;0;3109;0;0;0;0;5;0;7913;2;0;0;0;0;0;6;0;5895;2;0;0;0;0;0;7;0;3840;0;0;0;0;8;0;3876;0;0;0;0;9;0;2056;0;0;0;0
13.01.20;22:30:00;1;325;15516;0;2;0;3575;0;0;0;0;3;0;2213;0;0;0;0;4;0;3109;0;0;0;0;5;0;7913;2;0;0;0;0;0;6;0;5895;2;0;0;0;0;0;7;0;3840;0;0;0;0;8;0;3876;0;0;0;0;9;0;2056;0;0;0;0
13.01.20;22:25:00;1;354;15489;0;2;0;3575;0;0;0;0;3;0;2213;0;0;0;0;4;0;3109;0;0;0;0;5;0;7913;2;0;0;0;0;0;6;0;5895;2;0;0;0;0;0;7;0;3840;0;0;0;0;8;0;3876;0;0;0;0;9;0;2056;0;0;0;0
13.01.20;22:20:00;1;524;15459;0;2;0;3575;0;0;0;0;3;0;2213;0;0;0;0;4;0;3109;0;0;0;0;5;0;7913;2;0;0;0;0;0;6;0;5895;2;0;0;0;0;0;7;0;3840;0;0;0;0;8;0;3876;0;0;0;0;9;0;2056;0;0;0;0
13.01.20;22:15:00;1;488;15416;0;2;0;3575;0;0;0;0;3;0;2213;0;0;0;0;4;0;3109;0;0;0;0;5;0;7913;2;0;0;0;0;0;6;0;5895;2;0;0;0;0;0;7;0;3840;0;0;0;0;8;0;3876;0;0;0;0;9;0;2056;0;0;0;0
13.01.20;22:10:00;1;1076;15356;0;2;0;3575;0;0;0;0;3;0;2213;0;0;0;0;4;0;3109;0;0;0;0;5;0;7913;2;0;0;0;0;0;6;0;5895;2;0;0;0;0;0;7;0;3840;0;0;0;0;8;0;3876;0;0;0;0;9;0;2056;0;0;0;0
13.01.20;22:05:00;1;403;15270;0;2;0;3575;0;0;0;0;3;0;2213;0;0;0;0;4;0;3109;0;0;0;0;5;0;7913;2;0;0;0;0;0;6;0;5895;2;0;0;0;0;0;7;0;3840;0;0;0;0;8;0;3876;0;0;0;0;9;0;2056;0;0;0;0
13.01.20;22:00:00;1;394;15235;0;2;0;3575;0;0;0;0;3;0;2213;0;0;0;0;4;0;3109;0;0;0;0;5;0;7913;2;0;0;0;0;0;6;0;5895;2;0;0;0;0;0;7;0;3840;0;0;0;0;8;0;3876;0;0;0;0;9;0;2056;0;0;0;0
13.01.20;21:55:00;1;382;15202;0;2;0;3575;0;0;0;0;3;0;2213;0;0;0;0;4;0;3109;0;0;0;0;5;0;7913;2;0;0;0;0;0;6;0;5895;2;0;0;0;0;0;7;0;3840;0;0;0;0;8;0;3876;0;0;0;0;9;0;2056;0;0;0;0
13.01.20;21:50:00;1;392;15170;0;2;0;3575;0;0;0;0;3;0;2213;0;0;0;0;4;0;3109;0;0;0;0;5;0;7913;2;0;0;0;0;0;6;0;5895;2;0;0;0;0;0;7;0;3840;0;0;0;0;8;0;3876;0;0;0;0;9;0;2056;0;0;0;0
13.01.20;21:45:00;1;396;15137;0;2;0;3575;0;0;0;0;3;0;2213;0;0;0;0;4;0;3109;0;0;0;0;5;0;7913;2;0;0;0;0;0;6;0;5895;2;0;0;0;0;0;7;0;3840;0;0;0;0;8;0;3876;0;0;0;0;9;0;2056;0;0;0;0
13.01.20;21:40:00;1;410;15104;0;2;0;3575;0;0;0;0;3;0;2213;0;0;0;0;4;0;3109;0;0;0;0;5;0;7913;2;0;0;0;0;0;6;0;5895;2;0;0;0;0;0;7;0;3840;0;0;0;0;8;0;3876;0;0;0;0;9;0;2056;0;0;0;0
13.01.20;21:35:00;1;1085;15062;0;2;0;3575;0;0;0;0;3;0;2213;0;0;0;0;4;0;3109;0;0;0;0;5;0;7913;2;0;0;0;0;0;6;0;5895;2;0;0;0;0;0;7;0;3840;0;0;0;0;8;0;3876;0;0;0;0;9;0;2056;0;0;0;0
13.01.20;21:30:00;1;1530;15012;0;2;0;3575;0;0;0;0;3;0;2213;0;0;0;0;4;0;3109;0;0;0;0;5;0;7913;2;0;0;0;0;0;6;0;5895;2;0;0;0;0;0;7;0;3840;0;0;0;0;8;0;3876;0;0;0;0;9;0;2056;0;0;0;0
13.01.20;21:25:00;1;2557;14878;0;2;0;3575;0;0;0;0;3;0;2213;0;0;0;0;4;0;3109;0;0;0;0;5;0;7913;2;0;0;0;0;0;6;0;5895;2;0;0;0;0;0;7;0;3840;0;0;0;0;8;0;3876;0;0;0;0;9;0;2056;0;0;0;0
13.01.20;21:20:00;1;427;14729;0;2;0;3575;0;0;0;0;3;0;2213;0;0;0;0;4;0;3109;0;0;0;0;5;0;7913;2;0;0;0;0;0;6;0;5895;2;0;0;0;0;0;7;0;3840;0;0;0;0;8;0;3876;0;0;0;0;9;0;2056;0;0;0;0
13.01.20;21:15:00;1;476;14693;0;2;0;3575;0;0;0;0;3;0;2213;0;0;0;0;4;0;3109;0;0;0;0;5;0;7913;2;0;0;0;0;0;6;0;5895;2;0;0;0;0;0;7;0;3840;0;0;0;0;8;0;3876;0;0;0;0;9;0;2056;0;0;0;0
13.01.20;21:10:00;1;473;14652;0;2;0;3575;0;0;0;0;3;0;2213;0;0;0;0;4;0;3109;0;0;0;0;5;0;7913;2;0;0;0;0;0;6;0;5895;2;0;0;0;0;0;7;0;3840;0;0;0;0;8;0;3876;0;0;0;0;9;0;2056;0;0;0;0
13.01.20;21:05:00;1;464;14613;0;2;0;3575;0;0;0;0;3;0;2213;0;0;0;0;4;0;3109;0;0;0;0;5;0;7913;2;0;0;0;0;0;6;0;5895;2;0;0;0;0;0;7;0;3840;0;0;0;0;8;0;3876;0;0;0;0;9;0;2056;0;0;0;0
13.01.20;21:00:00;1;1180;14574;0;2;0;3575;0;0;0;0;3;0;2213;0;0;0;0;4;0;3109;0;0;0;0;5;0;7913;2;0;0;0;0;0;6;0;5895;2;0;0;0;0;0;7;0;3840;0;0;0;0;8;0;3876;0;0;0;0;9;0;2056;0;0;0;0
13.01.20;20:55:00;1;418;14513;0;2;0;3575;0;0;0;0;3;0;2213;0;0;0;0;4;0;3109;0;0;0;0;5;0;7913;2;0;0;0;0;0;6;0;5895;2;0;0;0;0;0;7;0;3840;0;0;0;0;8;0;3876;0;0;0;0;9;0;2056;0;0;0;0
13.01.20;20:50:00;1;420;14478;0;2;0;3575;0;0;0;0;3;0;2213;0;0;0;0;4;0;3109;0;0;0;0;5;0;7913;2;0;0;0;0;0;6;0;5895;2;0;0;0;0;0;7;0;3840;0;0;0;0;8;0;3876;0;0;0;0;9;0;2056;0;0;0;0
13.01.20;20:45:00;1;479;14443;0;2;0;3575;0;0;0;0;3;0;2213;0;0;0;0;4;0;3109;0;0;0;0;5;0;7913;2;0;0;0;0;0;6;0;5895;2;0;0;0;0;0;7;0;3840;0;0;0;0;8;0;3876;0;0;0;0;9;0;2056;0;0;0;0
13.01.20;20:40:00;1;563;14401;0;2;0;3575;0;0;0;0;3;0;2213;0;0;0;0;4;0;3109;0;0;0;0;5;0;7913;2;0;0;0;0;0;6;0;5895;2;0;0;0;0;0;7;0;3840;0;0;0;0;8;0;3876;0;0;0;0;9;0;2056;0;0;0;0
13.01.20;20:35:00;1;677;14354;0;2;0;3575;0;0;0;0;3;0;2213;0;0;0;0;4;0;3109;0;0;0;0;5;0;7913;2;0;0;0;0;0;6;0;5895;2;0;0;0;0;0;7;0;3840;0;0;0;0;8;0;3876;0;0;0;0;9;0;2056;0;0;0;0
13.01.20;20:30:00;1;707;14296;0;2;0;3575;0;0;0;0;3;0;2213;0;0;0;0;4;0;3109;0;0;0;0;5;0;7913;2;0;0;0;0;0;6;0;5895;2;0;0;0;0;0;7;0;3840;0;0;0;0;8;0;3876;0;0;0;0;9;0;2056;0;0;0;0
13.01.20;20:25:00;1;828;14236;0;2;0;3575;0;0;0;0;3;0;2213;0;0;0;0;4;0;3109;0;0;0;0;5;0;7913;2;0;0;0;0;0;6;0;5895;2;0;0;0;0;0;7;0;3840;0;0;0;0;8;0;3876;0;0;0;0;9;0;2056;0;0;0;0
13.01.20;20:20:00;1;684;14148;0;2;0;3575;0;0;0;0;3;0;2213;0;0;0;0;4;0;3109;0;0;0;0;5;0;7913;2;0;0;0;0;0;6;0;5895;2;0;0;0;0;0;7;0;3840;0;0;0;0;8;0;3876;0;0;0;0;9;0;2056;0;0;0;0
13.01.20;20:15:00;1;726;14091;0;2;0;3575;0;0;0;0;3;0;2213;0;0;0;0;4;0;3109;0;0;0;0;5;0;7913;2;0;0;0;0;0;6;0;5895;2;0;0;0;0;0;7;0;3840;0;0;0;0;8;0;3876;0;0;0;0;9;0;2056;0;0;0;0
13.01.20;20:10:00;1;712;14031;0;2;0;3575;0;0;0;0;3;0;2213;0;0;0;0;4;0;3109;0;0;0;0;5;0;7913;2;0;0;0;0;0;6;0;5895;2;0;0;0;0;0;7;0;3840;0;0;0;0;8;0;3876;0;0;0;0;9;0;2056;0;0;0;0
13.01.20;20:05:00;1;743;13971;0;2;0;3575;0;0;0;0;3;0;2213;0;0;0;0;4;0;3109;0;0;0;0;5;0;7913;2;0;0;0;0;0;6;0;5895;2;0;0;0;0;0;7;0;3840;0;0;0;0;8;0;3876;0;0;0;0;9;0;2056;0;0;0;0
13.01.20;20:00:00;1;713;13911;0;2;0;3575;0;0;0;0;3;0;2213;0;0;0;0;4;0;3109;0;0;0;0;5;0;7913;2;0;0;0;0;0;6;0;5895;2;0;0;0;0;0;7;0;3840;0;0;0;0;8;0;3876;0;0;0;0;9;0;2056;0;0;0;0
13.01.20;19:55:00;1;839;13851;0;2;0;3575;0;0;0;0;3;0;2213;0;0;0;0;4;0;3109;0;0;0;0;5;0;7913;2;0;0;0;0;0;6;0;5895;2;0;0;0;0;0;7;0;3840;0;0;0;0;8;0;3876;0;0;0;0;9;0;2056;0;0;0;0
13.01.20;19:50:00;1;872;13779;0;2;0;3575;0;0;0;0;3;0;2213;0;0;0;0;4;0;3109;0;0;0;0;5;0;7913;2;0;0;0;0;0;6;0;5895;2;0;0;0;0;0;7;0;3840;0;0;0;0;8;0;3876;0;0;0;0;9;0;2056;0;0;0;0
13.01.20;19:45:00;1;859;13683;0;2;0;3575;0;0;0;0;3;0;2213;0;0;0;0;4;0;3109;0;0;0;0;5;0;7913;2;0;0;0;0;0;6;0;5895;2;0;0;0;0;0;7;0;3840;0;0;0;0;8;0;3876;0;0;0;0;9;0;2056;0;0;0;0
13.01.20;19:40:00;1;869;13611;0;2;0;3575;0;0;0;0;3;0;2213;0;0;0;0;4;0;3109;0;0;0;0;5;0;7913;2;0;0;0;0;0;6;0;5895;2;0;0;0;0;0;7;0;3840;0;0;0;0;8;0;3876;0;0;0;0;9;0;2056;0;0;0;0
13.01.20;19:35:00;1;858;13538;0;2;0;3575;0;0;0;0;3;0;2213;0;0;0;0;4;0;3109;0;0;0;0;5;0;7913;2;0;0;0;0;0;6;0;5895;2;0;0;0;0;0;7;0;3840;0;0;0;0;8;0;3876;0;0;0;0;9;0;2056;0;0;0;0
13.01.20;19:30:00;1;826;13468;0;2;0;3575;0;0;0;0;3;0;2213;0;0;0;0;4;0;3109;0;0;0;0;5;0;7913;2;0;0;0;0;0;6;0;5895;2;0;0;0;0;0;7;0;3840;0;0;0;0;8;0;3876;0;0;0;0;9;0;2056;0;0;0;0
13.01.20;19:25:00;1;1025;13397;0;2;0;3575;0;0;0;0;3;0;2213;0;0;0;0;4;0;3109;0;0;0;0;5;0;7913;2;0;0;0;0;0;6;0;5895;2;0;0;0;0;0;7;0;3840;0;0;0;0;8;0;3876;0;0;0;0;9;0;2056;0;0;0;0
13.01.20;19:20:00;1;1036;13311;0;2;0;3575;0;0;0;0;3;0;2213;0;0;0;0;4;0;3109;0;0;0;0;5;0;7913;2;0;0;0;0;0;6;0;5895;2;0;0;0;0;0;7;0;3840;0;0;0;0;8;0;3876;0;0;0;0;9;0;2056;0;0;0;0
13.01.20;19:15:00;1;1015;13225;0;2;0;3575;0;0;0;0;3;0;2213;0;0;0;0;4;0;3109;0;0;0;0;5;0;7913;2;0;0;0;0;0;6;0;5895;2;0;0;0;0;0;7;0;3840;0;0;0;0;8;0;3876;0;0;0;0;9;0;2056;0;0;0;0
13.01.20;19:10:00;1;1669;13139;0;2;0;3575;0;0;0;0;3;0;2213;0;0;0;0;4;0;3109;0;0;0;0;5;0;7913;2;0;0;0;0;0;6;0;5895;2;0;0;0;0;0;7;0;3840;0;0;0;0;8;0;3876;0;0;0;0;9;0;2056;0;0;0;0
13.01.20;19:05:00;1;846;13027;0;2;0;3575;0;0;0;0;3;0;2213;0;0;0;0;4;0;3109;0;0;0;0;5;0;7913;2;0;0;0;0;0;6;0;5895;2;0;0;0;0;0;7;0;3840;0;0;0;0;8;0;3876;0;0;0;0;9;0;2056;0;0;0;0
13.01.20;19:00:00;1;757;12959;0;2;0;3575;0;0;0;0;3;0;2213;0;0;0;0;4;0;3109;0;0;0;0;5;0;7913;2;0;0;0;0;0;6;0;5895;2;0;0;0;0;0;7;0;3840;0;0;0;0;8;0;3876;0;0;0;0;9;0;2056;0;0;0;0
13.01.20;18:55:00;1;736;12896;0;2;0;3575;0;0;0;0;3;0;2213;0;0;0;0;4;0;3109;0;0;0;0;5;0;7913;2;0;0;0;0;0;6;0;5895;2;0;0;0;0;0;7;0;3840;0;0;0;0;8;0;3876;0;0;0;0;9;0;2056;0;0;0;0
13.01.20;18:50:00;1;718;12834;0;2;0;3575;0;0;0;0;3;0;2213;0;0;0;0;4;0;3109;0;0;0;0;5;0;7913;2;0;0;0;0;0;6;0;5895;2;0;0;0;0;0;7;0;3840;0;0;0;0;8;0;3876;0;0;0;0;9;0;2056;0;0;0;0
13.01.20;18:45:00;1;2465;12775;0;2;0;3575;0;0;0;0;3;0;2213;0;0;0;0;4;0;3109;0;0;0;0;5;0;7913;2;0;0;0;0;0;6;0;5895;2;0;0;0;0;0;7;0;3840;0;0;0;0;8;0;3876;0;0;0;0;9;0;2056;0;0;0;0
13.01.20;18:40:00;1;1557;12541;0;2;0;3575;0;0;0;0;3;0;2213;0;0;0;0;4;0;3109;0;0;0;0;5;0;7913;2;0;0;0;0;0;6;0;5895;2;0;0;0;0;0;7;0;3840;0;0;0;0;8;0;3876;0;0;0;0;9;0;2056;0;0;0;0
13.01.20;18:35:00;1;809;12434;0;2;0;3575;0;0;0;0;3;0;2213;0;0;0;0;4;0;3109;0;0;0;0;5;0;7913;2;0;0;0;0;0;6;0;5895;2;0;0;0;0;0;7;0;3840;0;0;0;0;8;0;3876;0;0;0;0;9;0;2056;0;0;0;0
13.01.20;18:30:00;1;892;12366;0;2;0;3575;0;0;0;0;3;0;2213;0;0;0;0;4;0;3109;0;0;0;0;5;0;7913;2;0;0;0;0;0;6;0;5895;2;0;0;0;0;0;7;0;3840;0;0;0;0;8;0;3876;0;0;0;0;9;0;2056;0;0;0;0
13.01.20;18:25:00;1;846;12292;0;2;0;3575;0;0;0;0;3;0;2213;0;0;0;0;4;0;3109;0;0;0;0;5;0;7913;2;0;0;0;0;0;6;0;5895;2;0;0;0;0;0;7;0;3840;0;0;0;0;8;0;3876;0;0;0;0;9;0;2056;0;0;0;0
13.01.20;18:20:00;1;1198;12221;0;2;0;3575;0;0;0;0;3;0;2213;0;0;0;0;4;0;3109;0;0;0;0;5;0;7913;2;0;0;0;0;0;6;0;5895;2;0;0;0;0;0;7;0;3840;0;0;0;0;8;0;3876;0;0;0;0;9;0;2056;0;0;0;0
13.01.20;18:15:00;1;861;12127;0;2;0;3575;0;0;0;0;3;0;2213;0;0;0;0;4;0;3109;0;0;0;0;5;0;7913;2;0;0;0;0;0;6;0;5895;2;0;0;0;0;0;7;0;3840;0;0;0;0;8;0;3876;0;0;0;0;9;0;2056;0;0;0;0
13.01.20;18:10:00;1;786;12056;0;2;0;3575;0;0;0;0;3;0;2213;0;0;0;0;4;0;3109;0;0;0;0;5;0;7913;2;0;0;0;0;0;6;0;5895;2;0;0;0;0;0;7;0;3840;0;0;0;0;8;0;3876;0;0;0;0;9;0;2056;0;0;0;0
13.01.20;18:05:00;1;776;11990;0;2;0;3575;0;0;0;0;3;0;2213;0;0;0;0;4;0;3109;0;0;0;0;5;0;7913;2;0;0;0;0;0;6;0;5895;2;0;0;0;0;0;7;0;3840;0;0;0;0;8;0;3876;0;0;0;0;9;0;2056;0;0;0;0
13.01.20;18:00:00;1;865;11922;0;2;0;3575;0;0;0;0;3;0;2213;0;0;0;0;4;0;3109;0;0;0;0;5;0;7913;2;0;0;0;0;0;6;0;5895;2;0;0;0;0;0;7;0;3840;0;0;0;0;8;0;3876;0;0;0;0;9;0;2056;0;0;0;0
13.01.20;17:55:00;1;948;11849;0;2;0;3575;0;0;0;0;3;0;2213;0;0;0;0;4;0;3109;0;0;0;0;5;0;7913;2;0;0;0;0;0;6;0;5895;2;0;0;0;0;0;7;0;3840;0;0;0;0;8;0;3876;0;0;0;0;9;0;2056;0;0;0;0
13.01.20;17:50:00;1;846;11770;0;2;0;3575;0;0;0;0;3;0;2213;0;0;0;0;4;0;3109;0;0;0;0;5;0;7913;2;0;0;0;0;0;6;0;5895;2;0;0;0;0;0;7;0;3840;0;0;0;0;8;0;3876;0;0;0;0;9;0;2056;0;0;0;0
13.01.20;17:45:00;1;847;11699;0;2;0;3575;0;0;0;0;3;0;2213;0;0;0;0;4;0;3109;0;0;0;0;5;0;7913;2;0;0;0;0;0;6;0;5895;2;0;0;0;0;0;7;0;3840;0;0;0;0;8;0;3876;0;0;0;0;9;0;2056;0;0;0;0
13.01.20;17:40:00;1;853;11629;0;2;0;3575;0;0;0;0;3;0;2213;0;0;0;0;4;0;3109;0;0;0;0;5;0;7913;2;0;0;0;0;0;6;0;5895;2;0;0;0;0;0;7;0;3840;0;0;0;0;8;0;3876;0;0;0;0;9;0;2056;0;0;0;0
13.01.20;17:35:00;1;853;11558;0;2;0;3575;0;0;0;0;3;0;2213;0;0;0;0;4;0;3109;0;0;0;0;5;0;7913;2;0;0;0;0;0;6;0;5895;2;0;0;0;0;0;7;0;3840;0;0;0;0;8;0;3876;0;0;0;0;9;0;2056;0;0;0;0
13.01.20;17:30:00;1;848;11487;0;2;0;3575;0;0;0;0;3;0;2213;0;0;0;0;4;0;3109;0;0;0;0;5;0;7913;2;0;0;0;0;0;6;0;5895;2;0;0;0;0;0;7;0;3840;0;0;0;0;8;0;3876;0;0;0;0;9;0;2056;0;0;0;0
13.01.20;17:25:00;1;889;11393;0;2;0;3575;0;0;0;0;3;0;2213;0;0;0;0;4;0;3109;0;0;0;0;5;0;7913;2;0;0;0;0;0;6;0;5895;2;0;0;0;0;0;7;0;3840;0;0;0;0;8;0;3876;0;0;0;0;9;0;2056;0;0;0;0
13.01.20;17:20:00;1;917;11317;0;2;0;3575;0;0;0;0;3;0;2213;0;0;0;0;4;0;3109;0;0;0;0;5;0;7913;2;0;0;0;0;0;6;0;5895;2;0;0;0;0;0;7;0;3840;0;0;0;0;8;0;3876;0;0;0;0;9;0;2056;0;0;0;0
13.01.20;17:15:00;1;944;11240;0;2;0;3575;0;0;0;0;3;0;2213;0;0;0;0;4;0;3109;0;0;0;0;5;0;7913;2;0;0;0;0;0;6;0;5895;2;0;0;0;0;0;7;0;3840;0;0;0;0;8;0;3876;0;0;0;0;9;0;2056;0;0;0;0
13.01.20;17:10:00;1;710;11164;0;2;0;3575;0;0;0;0;3;0;2213;0;0;0;0;4;0;3109;0;0;0;0;5;0;7913;2;0;0;0;0;0;6;0;5895;2;0;0;0;0;0;7;0;3840;0;0;0;0;8;0;3876;0;0;0;0;9;0;2056;0;0;0;0
13.01.20;17:05:00;1;692;11105;0;2;0;3575;0;0;0;0;3;0;2213;0;0;0;0;4;0;3109;0;0;0;0;5;0;7913;2;0;0;0;0;0;6;0;5895;2;0;0;0;0;0;7;0;3840;0;0;0;0;8;0;3876;0;0;0;0;9;0;2056;0;0;0;0
13.01.20;17:00:00;1;689;11047;0;2;0;3575;0;0;109;3;3;0;2213;0;0;234;10;4;0;3109;0;0;7;1;5;0;7913;2;0;0;0;0;0;6;0;5895;2;0;0;0;0;0;7;0;3840;0;0;0;0;8;0;3876;0;0;0;0;9;0;2056;0;0;0;0
13.01.20;16:55:00;1;691;10990;0;2;0;3575;6;0;303;9;3;0;2213;6;0;352;13;4;0;3109;2;0;79;8;5;0;7913;2;0;0;55;54;8;6;0;5895;2;3;0;96;51;7;7;0;3840;0;0;0;0;8;0;3876;0;0;0;0;9;0;2056;0;0;0;0
13.01.20;16:50:00;1;1067;10932;0;2;0;3575;6;0;367;9;3;0;2213;3;3;424;13;4;0;3109;1;0;156;9;5;0;7913;23;0;1;397;421;20;6;0;5895;23;5;4;234;470;19;7;0;3840;6;0;304;13;8;0;3876;6;0;308;12;9;0;2056;6;0;325;9
13.01.20;16:45:00;1;739;10844;0;2;0;3575;6;0;383;9;3;0;2213;6;2;458;13;4;0;3109;1;0;183;9;5;0;7913;26;0;0;416;599;20;6;0;5895;23;6;4;181;551;19;7;0;3840;6;0;355;13;8;0;3876;6;0;360;13;9;0;2056;6;0;383;9
13.01.20;16:40:00;1;771;10781;0;2;0;3575;6;0;393;10;3;1;2213;6;4;453;13;4;0;3109;1;0;201;9;5;11;7913;4;0;6;411;636;21;6;0;5895;23;5;3;182;567;20;7;0;3840;6;0;326;10;8;0;3876;6;0;397;13;9;0;2056;6;0;414;9
13.01.20;16:35:00;1;797;10717;0;2;0;3575;6;0;400;10;3;3;2213;6;7;453;13;4;0;3109;1;0;214;10;5;6;7912;4;0;1;423;665;21;6;0;5895;23;6;5;434;577;20;7;0;3840;0;0;153;5;8;0;3876;6;0;405;13;9;0;2056;4;0;437;9
13.01.20;16:30:00;1;770;10651;0;2;0;3575;6;0;413;10;3;0;2213;6;5;500;13;4;0;3109;3;0;213;10;5;72;7911;4;12;18;382;608;22;6;0;5895;8;5;3;479;590;21;7;0;3840;6;2;437;14;8;0;3876;6;2;257;7;9;2;2056;3;2;461;9
13.01.20;16:25:00;1;772;10586;0;2;2;3575;6;7;405;10;3;2;2213;6;5;504;13;4;0;3109;3;0;222;10;5;81;7905;4;17;25;381;608;22;6;43;5895;1;21;26;502;479;22;7;0;3840;6;2;443;14;8;0;3876;6;0;376;11;9;1;2056;6;2;474;9
13.01.20;16:20:00;1;812;10521;0;2;8;3575;6;16;402;11;3;2;2213;4;11;493;13;4;1;3109;3;1;199;10;5;118;7898;4;40;38;382;608;22;6;75;5890;4;36;40;476;451;22;7;1;3840;6;4;388;11;8;0;3876;6;4;473;14;9;2;2055;6;3;520;10
13.01.20;16:15:00;1;813;10453;0;2;40;3574;6;63;378;11;3;8;2213;3;20;500;14;4;7;3109;3;8;199;10;5;158;7888;4;61;52;382;608;22;6;102;5884;4;50;59;476;451;22;7;4;3839;4;9;485;14;8;2;3876;4;8;484;14;9;2;2055;6;6;534;10
13.01.20;16:10:00;1;876;10385;0;2;64;3571;4;92;368;11;3;5;2212;6;11;541;14;4;27;3108;3;27;198;10;5;183;7875;4;78;67;382;608;22;6;121;5875;4;65;77;476;451;22;7;42;3839;4;73;355;14;8;44;3876;4;72;373;14;9;3;2055;6;6;546;10
13.01.20;16:05:00;1;876;10312;0;2;76;3565;4;104;367;11;3;8;2211;6;14;540;14;4;35;3106;3;37;198;11;5;207;7859;4;97;83;382;608;22;6;138;5865;4;51;56;475;451;22;7;53;3835;4;78;359;14;8;38;3872;4;72;345;11;9;0;2055;6;0;578;10
13.01.20;16:00:00;1;1262;10238;0;2;93;3559;4;123;368;11;3;32;2211;6;52;457;14;4;53;3103;3;55;197;11;5;243;7842;4;109;102;382;608;22;6;159;5853;4;65;64;476;451;22;7;76;3831;4;105;419;15;8;66;3868;4;104;430;14;9;12;2055;3;20;535;10
13.01.20;15:55:00;1;860;10142;0;2;111;3551;4;139;373;12;3;60;2208;4;93;432;14;4;64;3098;3;67;198;11;5;268;7821;4;125;110;382;608;22;6;179;5840;4;87;91;476;451;22;7;105;3825;4;133;413;15;8;105;3863;4;136;423;14;9;11;2054;6;15;561;10
13.01.20;15:50:00;1;846;10070;0;2;117;3542;4;146;370;12;3;64;2203;4;100;451;14;4;63;3093;3;65;198;11;5;287;7798;4;134;121;382;608;22;6;190;5825;4;92;94;476;451;22;7;95;3816;4;130;385;15;8;85;3852;0;110;332;11;9;8;2053;6;12;564;10
13.01.20;15:45:00;1;798;9998;0;2;128;3532;4;157;374;12;3;71;2198;4;111;490;14;4;79;3088;3;82;199;11;5;311;7774;4;148;123;382;608;22;6;203;5809;4;96;105;476;451;22;7;111;3808;4;139;422;15;8;104;3845;4;136;394;14;9;11;2052;6;15;561;10
13.01.20;15:40:00;1;783;9934;0;2;129;3521;4;158;380;12;3;71;2192;4;109;487;15;4;83;3081;3;86;199;11;5;316;7748;4;153;130;382;608;22;6;210;5791;4;103;108;476;451;22;7;106;3799;4;147;451;15;8;115;3837;4;144;389;14;9;10;2051;6;14;567;11
13.01.20;15:35:00;1;776;9869;0;2;146;3511;4;179;384;12;3;84;2186;4;120;477;15;4;100;3074;3;104;220;11;5;354;7722;4;170;153;385;608;22;6;233;5774;4;110;117;475;451;22;7;127;3790;4;166;437;15;8;129;3827;4;159;393;14;9;56;2050;6;77;503;11
13.01.20;15:30:00;1;777;9805;0;2;175;3499;4;207;373;12;3;100;2179;4;139;507;15;4;130;3066;5;136;227;11;5;407;7692;4;200;176;389;608;22;6;274;5754;4;148;158;480;474;22;7;168;3779;4;201;430;15;8;165;3816;4;205;441;15;9;88;2046;4;112;474;11
13.01.20;15:25:00;1;714;9741;0;2;226;3484;4;258;381;12;3;134;2170;4;175;498;15;4;172;3055;5;180;231;11;5;490;7657;4;244;203;406;601;22;6;366;5731;4;197;202;569;557;22;7;212;3765;4;250;446;15;8;214;3802;4;250;459;15;9;117;2038;4;142;514;11
13.01.20;15:20:00;1;1181;9682;0;2;271;3465;4;304;388;12;3;162;2159;4;202;511;15;4;216;3041;5;225;232;11;5;577;7616;4;288;246;409;633;22;6;431;5699;4;222;229;580;560;22;7;255;3747;4;301;455;15;8;266;3785;4;304;459;15;9;141;2029;4;169;513;11
13.01.20;15:15:00;1;3763;9546;0;2;318;3443;4;353;395;12;3;193;2146;4;233;488;15;4;262;3023;5;273;234;11;5;665;7568;4;330;288;411;652;22;6;504;5663;4;261;272;590;558;22;7;329;3726;4;367;476;15;8;325;3762;4;364;486;15;9;180;2017;4;207;504;11
13.01.20;15:10:00;1;779;9320;0;2;348;3416;4;385;402;12;3;214;2130;4;256;513;15;4;294;3001;5;307;236;11;5;750;7511;4;380;323;413;657;22;6;561;5621;4;289;300;580;569;22;7;364;3699;4;414;462;15;8;379;3735;4;420;471;15;9;202;2002;4;232;512;12
13.01.20;15:05:00;1;828;9254;0;2;340;3387;4;377;403;12;3;211;2112;4;249;507;15;4;286;2976;5;298;236;11;5;723;7448;4;373;308;420;666;22;6;545;5574;4;262;270;580;568;22;7;352;3668;4;386;449;15;8;358;3704;4;395;464;15;9;190;1985;4;221;525;12
13.01.20;15:00:00;1;861;9179;0;2;355;3359;4;394;400;12;3;219;2094;4;261;509;15;4;300;2952;5;312;238;11;5;757;7387;4;379;325;419;666;22;6;566;5528;4;284;292;586;567;22;7;375;3639;4;417;472;15;8;383;3674;4;417;474;15;9;205;1969;4;233;521;12
13.01.20;14:55:00;1;896;9106;0;2;311;3329;4;348;395;12;3;193;2076;4;233;507;15;4;258;2927;5;269;237;11;5;677;7325;4;330;290;411;672;22;6;504;5481;4;237;241;588;571;22;7;303;3608;4;352;475;15;8;333;3642;4;363;473;15;9;175;1952;4;205;525;12
13.01.20;14:50:00;1;889;9027;0;2;296;3303;4;330;395;12;3;181;2060;4;221;492;15;4;246;2906;5;256;234;11;5;640;7269;4;323;276;407;676;22;6;487;5439;4;234;237;588;561;22;7;304;3582;4;342;468;15;8;301;3614;4;344;483;15;9;167;1937;4;193;520;12
13.01.20;14:45:00;1;1515;8952;0;2;366;3278;4;405;396;13;3;228;2045;4;270;509;15;4;303;2885;5;315;237;11;5;774;7214;4;391;332;413;666;22;6;572;5399;4;280;281;585;569;22;7;370;3557;4;406;478;15;8;363;3589;4;400;488;15;9;196;1924;4;226;520;12
13.01.20;14:40:00;1;886;8843;0;2;406;3248;4;446;404;13;3;249;2026;4;293;522;15;4;341;2860;5;355;236;11;5;868;7151;4;441;367;418;671;22;6;638;5351;4;287;292;578;571;22;7;249;3526;4;273;290;9;8;466;3559;4;503;475;15;9;242;1907;4;275;530;12
13.01.20;14:35:00;1;954;8770;0;2;459;3215;4;498;405;13;3;283;2006;4;329;520;15;4;399;2833;5;415;240;11;5;971;7079;4;487;414;411;684;22;6;736;5297;4;390;391;596;574;22;7;400;3479;0;427;375;12;8;501;3522;4;547;483;15;9;267;1888;4;303;525;12
13.01.20;14:30:00;1;906;8687;0;2;440;3177;4;482;406;13;3;279;1982;4;322;512;15;4;379;2799;5;394;239;11;5;932;6998;4;472;402;422;688;22;6;708;5236;4;352;362;588;570;22;7;439;3449;4;481;485;15;8;288;3464;0;316;320;10;9;240;1865;4;275;533;12
13.01.20;14:25:00;1;1866;8599;0;2;360;3140;4;399;405;13;3;222;1959;4;265;520;15;4;297;2768;5;309;242;11;5;768;6922;4;393;329;412;659;22;6;573;5178;4;286;290;585;573;22;7;382;3412;4;414;472;15;8;386;3441;4;420;480;15;9;206;1845;4;236;527;12
13.01.20;14:20:00;1;1870;8441;0;2;352;3110;4;391;403;13;3;218;1940;4;261;515;15;4;295;2743;5;307;236;11;5;746;6858;4;383;325;416;665;22;6;569;5131;4;291;299;585;572;22;7;342;3380;4;386;478;15;8;343;3409;4;384;488;15;9;155;1823;0;179;413;9
13.01.20;14:15:00;1;1279;8299;0;2;312;3081;4;351;400;13;3;193;1922;4;235;512;15;4;260;2718;5;270;233;11;5;692;6794;4;339;293;407;661;22;6;515;5082;4;258;269;585;574;22;7;314;3352;4;344;476;15;8;308;3380;4;348;480;15;9;167;1812;4;195;527;12
13.01.20;14:10:00;1;929;8197;0;2;284;3055;4;318;388;13;3;173;1906;4;214;508;15;4;230;2697;5;240;235;11;5;618;6737;4;296;262;402;661;22;6;465;5040;4;237;248;592;563;22;7;275;3327;4;312;456;15;8;276;3355;4;313;475;15;9;150;1798;4;178;502;12
13.01.20;14:05:00;1;977;8118;0;2;307;3031;4;343;393;13;3;188;1891;4;227;487;15;4;251;2677;5;262;234;11;5;670;6686;4;330;289;409;677;22;6;503;5001;4;257;256;581;567;22;7;286;3304;4;325;475;15;8;284;3332;4;321;480;15;9;154;1785;4;184;525;12
13.01.20;14:00:00;1;980;8038;0;2;349;3005;4;386;401;13;3;211;1876;4;252;479;15;4;293;2656;5;305;236;12;5;758;6629;4;382;319;414;670;22;6;568;4959;4;274;279;581;567;22;7;336;3280;4;374;463;15;8;342;3308;4;383;476;15;9;185;1773;4;214;520;12
13.01.20;13:55:00;1;1033;7957;0;2;375;2976;4;415;396;13;3;230;1858;4;273;504;16;4;313;2632;5;326;237;12;5;801;6566;4;402;344;417;673;22;6;598;4911;4;302;317;589;568;22;7;368;3252;4;413;481;15;8;384;3280;4;417;474;15;9;205;1757;4;234;514;12
13.01.20;13:50:00;1;1183;7875;0;2;408;2945;4;449;404;13;3;252;1839;4;296;524;16;4;349;2606;5;364;238;12;5;867;6498;4;435;373;418;687;22;6;650;4860;4;328;333;589;567;22;7;427;3222;4;461;467;15;8;419;3248;4;461;484;15;9;228;1740;4;259;523;12